Dewpoint
61 63 61 49 39 40 39 38 42 43 47 50 53 52 52 55 51 47 62 63 66 67 67 67 68 68 68 68 67 67 66 65 65 65 66 66 67 68 67 68 67 66 64 64 62 63 62 61 61
56 60 49 46 37 37 37 40 42 43 51 55 54 55 54 53 59 60 61 66 66 66 67 67 68 69 68 68 67 67 66 65 64 64 64 64 66 67 67 66 66 65 63 62 63 62 63 62 61
55 53 44 42 41 38 37 40 43 46 51 49 54 56 55 55 59 60 63 66 66 66 66 67 68 69 68 68 67 67 66 65 64 63 64 63 65 65 64 64 64 64 63 62 62 62 62 61 61
46 46 41 40 38 39 38 41 43 45 47 53 54 53 56 59 59 61 64 66 66 66 66 67 69 68 68 68 67 67 66 65 63 63 63 63 65 65 64 63 62 62 63 64 64 63 62 62 62
46 44 36 37 36 37 43 43 44 43 46 51 52 52 55 58 61 64 64 65 65 66 66 67 68 69 69 68 67 66 65 64 63 63 63 62 63 65 64 63 61 60 60 61 63 63 62 62 61
40 42 38 33 34 39 44 44 42 43 51 53 54 54 55 60 61 62 63 64 66 66 67 67 66 67 68 68 67 67 66 65 64 62 62 62 62 63 64 63 62 61 60 59 59 60 61 60 60
42 41 38 37 33 39 42 43 41 46 50 51 56 53 55 59 60 62 64 65 66 66 67 66 66 66 66 67 67 66 66 66 66 65 64 64 64 64 64 64 61 60 60 59 59 59 59 59 60
41 41 39 39 35 36 40 40 39 44 43 55 56 53 54 58 60 64 65 65 65 66 66 65 66 66 66 65 64 64 65 65 65 65 64 62 62 63 62 61 62 60 59 60 60 60 60 61 62
41 36 38 40 35 35 39 37 42 45 52 50 53 56 57 58 62 62 62 63 63 64 64 64 64 64 65 64 63 62 63 63 64 63 62 61 61 61 60 60 61 62 63 62 62 62 63 63 63
38 36 37 40 40 40 40 41 44 46 49 52 55 58 58 59 61 60 61 61 61 61 62 63 63 63 64 65 64 63 63 63 63 63 62 62 62 62 61 59 60 61 62 63 63 64 63 62 61
38 35 39 39 42 42 41 43 44 45 45 52 54 57 58 58 59 60 60 60 60 61 62 62 62 62 63 63 63 62 62 62 62 62 62 62 62 61 62 62 60 60 58 59 60 60 61 61 61
38 36 39 41 42 42 41 44 43 42 44 49 57 58 58 57 58 59 59 60 60 61 61 63 63 62 62 63 62 62 61 61 61 61 61 61 61 61 60 61 60 59 60 59 59 60 60 61 60
38 37 39 39 40 41 43 43 43 43 49 57 58 58 58 57 58 59 60 60 60 61 61 62 63 62 63 62 62 61 61 62 62 62 62 62 61 60 59 60 60 60 60 60 59 59 58 58 57
44 40 39 39 41 41 42 43 43 45 56 57 57 57 58 58 57 58 58 59 60 60 61 62 62 62 63 62 62 62 62 62 62 62 62 63 62 60 59 59 58 59 60 60 59 58 58 58 57
42 37 37 40 37 41 42 44 42 48 57 57 57 57 58 58 58 57 58 59 59 60 60 61 61 62 62 62 62 62 62 62 62 62 62 62 62 61 60 60 59 58 59 59 58 58 57 57 58
38 36 40 34 36 38 42 40 43 50 56 56 56 56 57 58 58 57 57 58 59 60 60 60 61 61 61 62 62 62 62 62 62 62 62 62 62 62 61 60 60 59 58 58 57 57 56 56 57
42 40 36 35 37 34 41 40 42 48 54 55 54 55 57 57 58 57 58 58 58 59 60 60 61 61 61 62 62 62 62 61 61 61 61 61 61 61 61 61 60 60 59 59 58 57 56 56 56
39 39 35 37 36 34 36 39 35 38 50 53 53 55 56 57 57 58 57 58 58 59 59 60 60 61 61 61 61 61 61 61 61 61 61 61 61 61 61 61 60 60 59 59 58 58 58 57 58
40 40 38 33 40 35 36 34 33 35 41 48 50 53 54 56 57 57 56 56 57 58 58 59 60 60 60 60 59 59 60 61 61 61 61 61 61 61 60 60 60 60 59 59 58 57 57 58 57
41 39 37 40 42 36 39 36 37 36 35 45 48 49 52 53 51 51 53 53 54 55 56 57 58 59 60 60 60 60 59 60 59 59 60 60 59 58 56 56 55 56 55 55 55 56 56 56 56
43 38 37 37 42 41 40 37 37 34 31 36 43 43 49 51 49 43 46 49 48 43 49 55 57 58 58 59 58 57 55 54 53 54 54 55 54 54 53 53 53 54 54 54 54 55 55 56 55
39 43 41 40 37 36 42 35 40 37 35 31 34 26 38 38 38 41 41 44 46 46 46 44 43 44 44 48 52 52 53 52 52 51 51 50 51 52 52 53 53 53 53 54 55 56 55 55 56
40 43 41 41 38 37 38 35 38 36 36 30 22 25 28 31 36 37 39 39 39 39 39 40 40 41 42 42 44 46 45 48 48 48 48 49 49 49 50 50 51 51 51 52 52 53 53 55 57
41 39 38 37 37 31 36 36 37 39 38 41 27 29 30 32 34 35 36 37 38 38 39 39 39 40 41 41 42 44 44 44 44 45 45 46 47 48 48 49 48 49 49 49 50 51 52 53 54
40 38 29 28 29 30 34 35 37 33 44 43 40 37 37 35 35 35 35 36 37 37 38 38 39 38 40 40 40 41 41 42 42 43 44 45 47 47 48 48 48 48 48 48 49 49 49 50 52
38 35 30 23 24 25 28 31 32 28 25 45 47 44 44 40 39 37 36 36 37 37 37 37 38 38 38 39 39 39 39 40 41 42 43 45 46 46 47 47 46 46 46 46 46 46 47 47 48
37 35 31 22 18 22 27 28 23 24 25 36 34 36 39 38 37 36 35 35 35 35 36 36 36 36 36 37 38 39 39 39 39 40 41 42 43 43 45 45 44 44 44 44 44 44 44 44 45
36 34 30 29 21 18 18 13 14 22 24 28 29 30 32 32 31 31 31 31 32 33 33 33 33 33 33 34 36 37 38 38 38 38 38 39 39 41 41 41 42 42 42 42 41 41 41 41 42
28 33 23 24 24 17 14 12 15 21 25 27 29 31 31 30 30 30 30 31 31 31 33 32 32 32 31 33 35 35 35 35 36 36 37 37 38 38 38 39 39 39 39 40 39 39 39 39 39
32 24 20 23 18 16 17 17 25 25 26 27 28 30 30 29 29 29 30 30 29 30 31 31 30 30 30 32 33 33 31 31 31 31 32 34 34 35 36 36 37 37 38 38 38 38 38 37 37
Lifted_Index
1 1 1 2 3 3 3 2 2 1 1 1 0 0 0 1 1 1 1 1 0 0 0 -0 -0 -1 -1 -0 -0 0 1 2 3 3 3 2 2 1 1 2 2 3 4 5 5 5 6 6 6
1 1 2 3 3 3 3 2 2 1 1 1 0 0 0 1 1 1 1 1 1 0 0 0 -0 -1 -1 -1 -0 0 1 2 3 3 3 3 2 2 2 2 3 3 4 5 5 5 6 6 6
2 2 3 3 3 2 2 2 2 1 1 1 0 0 1 1 1 1 1 1 1 1 1 1 0 -0 -0 -0 -0 0 1 2 3 3 3 3 3 3 3 4 4 4 4 4 5 5 5 6 6
3 3 3 3 2 2 2 2 2 2 1 1 1 1 1 1 1 1 1 1 1 1 1 1 0 0 -0 -0 0 0 1 2 3 3 3 4 3 3 4 4 5 5 5 4 4 5 5 6 6
3 3 3 2 2 2 2 2 2 2 2 1 1 1 1 1 1 1 2 2 1 1 1 1 0 0 0 0 0 1 1 2 3 3 4 4 4 3 4 5 5 6 6 5 5 5 5 6 6
4 3 3 2 2 2 2 2 2 2 2 1 1 1 1 1 1 1 2 2 1 1 1 1 1 1 0 0 1 1 2 2 3 3 3 4 4 3 4 4 5 5 6 6 6 6 6 6 6
4 3 3 2 2 2 2 2 2 2 2 1 1 1 1 1 1 1 1 1 1 1 1 1 1 1 1 1 1 1 1 2 2 3 3 4 4 4 4 4 5 5 6 6 6 6 6 6 6
4 3 2 3 3 2 2 2 3 3 2 1 1 1 0 0 0 1 1 1 1 1 1 1 1 1 1 1 1 1 1 2 2 2 3 4 4 4 4 5 5 5 5 5 5 6 6 5 5
3 3 3 2 3 2 2 2 3 3 2 1 1 0 0 0 0 0 1 1 1 1 1 1 1 1 1 1 1 2 2 2 2 2 3 3 4 4 4 4 4 4 5 5 5 5 5 5 5
3 3 2 2 3 2 2 2 2 2 2 1 1 0 -0 -0 0 0 1 1 1 1 1 1 1 1 1 1 1 1 2 2 2 2 3 3 3 3 3 4 4 4 4 4 5 5 5 5 5
2 2 2 2 2 2 2 2 2 2 2 1 1 -0 -0 -0 -0 0 0 0 0 1 1 2 2 2 2 2 2 2 2 2 2 2 3 3 3 3 3 3 4 4 4 4 5 5 5 5 5
2 2 3 3 3 2 2 2 2 2 2 1 1 -0 -1 -1 -1 -0 -0 0 0 0 1 2 2 2 2 2 2 2 2 2 2 2 2 2 3 3 3 3 4 4 4 4 5 5 5 5 5
1 2 3 3 3 2 2 1 1 1 1 1 0 -0 -1 -1 -1 -1 -0 -0 -0 0 0 1 1 1 1 1 1 1 2 2 2 2 2 2 2 2 3 3 3 4 4 4 5 5 5 5 6
1 2 2 2 2 2 2 1 1 1 0 -0 -1 -1 -1 -1 -1 -1 -1 -1 -1 -0 -0 0 0 0 0 0 0 1 1 1 1 1 1 1 1 2 2 3 3 3 4 4 4 5 5 5 5
1 1 2 2 2 2 1 1 1 0 -0 -1 -1 -1 -1 -2 -2 -2 -1 -1 -1 -1 -1 -1 -1 -0 -0 -0 -0 -0 -0 -0 0 0 0 0 1 1 2 2 2 3 3 3 4 4 4 5 5
1 1 2 2 2 1 1 1 1 0 -1 -1 -1 -2 -2 -2 -2 -2 -2 -2 -1 -1 -2 -2 -1 -1 -1 -1 -1 -1 -1 -1 -0 -0 -0 0 1 1 1 1 2 2 2 3 3 3 4 4 4
1 2 2 2 2 2 2 1 1 0 -0 -1 -2 -2 -2 -2 -2 -2 -2 -2 -2 -2 -2 -2 -2 -2 -1 -1 -1 -1 -1 -1 -1 -0 -0 0 0 1 1 1 1 1 2 2 2 3 3 3 3
2 1 1 2 2 2 2 1 1 0 -0 -1 -2 -2 -2 -2 -2 -2 -2 -2 -2 -2 -2 -2 -2 -2 -2 -2 -2 -1 -1 -1 -1 -1 -1 -0 0 0 0 0 1 1 1 2 2 2 3 3 3
1 1 1 1 2 2 1 1 0 0 -0 -0 -1 -2 -3 -3 -2 -2 -2 -3 -3 -3 -2 -2 -2 -2 -2 -2 -2 -1 -1 -1 -1 -1 -1 -1 -0 -0 0 0 1 1 1 2 2 3 4 3 3
1 1 1 1 2 1 1 1 1 0 -0 -0 -1 -2 -2 -2 -2 -2 -2 -2 -2 -2 -2 -3 -3 -2 -2 -2 -1 -1 -1 -1 -1 -1 -1 -0 0 1 1 1 1 2 2 3 4 5 5 5 4
1 1 1 1 1 1 1 1 1 1 0 -0 -0 -1 -2 -2 -2 -2 -2 -2 -2 -2 -2 -2 -2 -2 -2 -2 -1 -1 -1 -1 -0 0 1 2 2 3 4 4 4 4 4 5 6 6 6 6 5
2 2 2 1 1 1 1 1 1 1 1 0 0 -0 -1 -1 -1 -1 -1 -1 -1 -1 -1 -1 -1 -1 -1 -1 -1 0 1 2 3 4 5 6 6 7 7 7 6 6 6 6 6 7 6 6 5
2 2 2 1 1 1 1 1 1 1 1 1 1 2 1 1 2 2 2 2 2 2 2 2 2 2 2 2 3 4 6 7 8 9 9 9 9 9 9 9 8 7 7 7 7 7 7 6 5
2 2 1 1 1 1 1 2 2 2 2 3 3 4 4 5 5 6 7 7 7 7 7 7 7 7 7 7 8 9 10 10 11 11 11 11 10 10 10 9 8 8 7 7 7 7 7 6 6
2 2 1 1 1 1 2 2 2 3 3 4 4 5 6 6 7 8 9 10 10 10 10 10 10 10 10 10 10 11 11 11 11 11 11 11 10 10 10 9 9 8 8 8 8 8 8 7 6
2 2 1 1 1 1 2 2 3 4 5 5 4 5 5 6 7 8 9 10 10 10 10 10 10 10 11 11 11 11 11 11 11 11 11 11 10 10 9 9 9 9 9 8 8 8 8 7 7
2 2 2 1 1 1 1 2 3 5 6 6 5 5 6 7 7 8 9 9 10 10 10 10 10 11 11 11 11 11 11 11 11 11 11 11 10 10 10 10 9 9 9 8 8 8 7 7 7
2 2 2 1 1 1 1 2 3 4 5 6 6 7 7 8 9 9 9 10 10 10 11 11 12 12 12 12 12 12 12 11 11 11 11 11 11 10 10 10 9 9 9 9 8 8 7 7 6
2 2 2 1 1 1 1 2 4 5 5 5 6 7 8 9 9 9 9 10 10 10 11 11 12 12 12 12 12 12 12 12 11 11 11 11 11 11 11 10 10 10 9 9 8 7 7 6 6
2 2 2 1 1 1 1 3 5 7 7 6 6 7 8 9 9 9 9 9 10 10 11 11 12 12 12 13 12 12 12 12 11 11 12 11 11 11 11 11 11 10 9 8 7 6 6 5 5